Location: Ammerl�gen
(47.2167°N, 9.6000°E)
Time: 17:07:25
(UTC+00:00)

NOAA 19 - Pass Details

Date: 01 December 2021
Orbit: 841 x 860 km, 99.2° (Epoch: 17 January)

Event Time Altitude Azimuth Distance (km) Brightness Sun altitude
Rises 05:58:28 0° 26° (NNE) 3,427 8.4 -8.2°
Reaches altitude 10° 06:01:20 10° 40° (NE) 2,490 7.9 -7.7°
Maximum altitude 06:05:42 24° 93° (E) 1,721 7.8 -7.1°
Drops below altitude 10° 06:10:03 10° 145° (SE) 2,485 8.7 -6.4°
Sets 06:12:54 0° 159° (SSE) 3,418 9.2 -6.0°
